EW4553 Weather Reports


time (UTC)temp
F
wind
direction
speed
knots
gust
knots
rain 1hr
in
rain 24hr
in
rain mn
in
humidity
%
barometer
mb
20260505214726 52 311 5.2 8.7 0.00 0.00 0.00 73 1013.2
20260505214550 52 339 4.3 8.7 0.00 0.00 0.00 73 1013.2
20260505214217 52 309 5.2 8.7 0.00 0.00 0.00 73 1013.3
20260505213932 53 311 6.1 8.7 0.00 0.00 0.00 73 1013.3
20260505213212 53 305 6.1 8.7 0.00 0.00 0.00 73 1013.3
20260505213048 52 327 6.1 8.7 0.00 0.00 0.00 73 1013.2
20260505212711 53 301 6.1 8.7 0.00 0.00 0.00 72 1013.3
20260505212210 53 318 5.2 9.6 0.00 0.00 0.00 72 1013.2
20260505211710 53 305 5.2 9.6 0.00 0.00 0.00 72 1013.3
20260505211510 52 318 5.2 9.6 0.00 0.00 0.00 72 1013.2
20260505211207 53 304 5.2 9.6 0.00 0.00 0.00 72 1013.3
20260505210911 53 294 6.1 10.4 0.00 0.00 0.00 72 1013.3
20260505210342 53 326 6.1 10.4 0.00 0.00 0.00 71 1013.2
20260505210050 53 297 6.1 8.7 0.00 0.00 0.00 71 1013.1
20260505205558 53 313 7.0 10.4 0.00 0.00 0.00 71 1013.1
20260505205319 53 332 7.8 10.4 0.00 0.00 0.00 71 1013.2
20260505205038 53 308 7.0 10.4 0.00 0.00 0.00 71 1013.1
20260505204527 53 307 7.0 10.4 0.00 0.00 0.00 71 1013.1
20260505204314 53 297 7.0 10.4 0.00 0.00 0.00 71 1013.1
20260505203551 53 297 7.0 10.4 0.00 0.00 0.00 71 1013.1
20260505203042 53 311 5.2 8.7 0.00 0.00 0.00 71 1013.1
20260505203022 53 287 6.1 9.6 0.00 0.00 0.00 71 1013.2
20260505202521 54 304 6.1 8.7 0.00 0.00 0.00 71 1013.2
20260505201955 54 293 6.1 10.4 0.00 0.00 0.00 70 1013.1
20260505201949 54 295 7.0 10.4 0.00 0.00 0.00 71 1013.0
20260505201549 53 287 6.1 10.4 0.00 0.00 0.00 70 1013.0
20260505200944 54 314 6.1 10.4 0.00 0.00 0.00 71 1012.9
20260505200419 54 306 6.1 8.7 0.00 0.00 0.00 71 1012.9
20260505200049 53 300 5.2 8.7 0.00 0.00 0.00 71 1012.8
20260505195904 54 296 6.1 8.7 0.00 0.00 0.00 71 1012.9
20260505195336 54 297 5.2 7.8 0.00 0.00 0.00 71 1012.8
20260505194837 54 299 5.2 7.0 0.00 0.00 0.00 71 1012.8
20260505194548 54 301 4.3 7.0 0.00 0.00 0.00 71 1012.7
20260505194310 54 311 5.2 6.1 0.00 0.00 0.00 70 1012.7
20260505193802 54 301 4.3 7.0 0.00 0.00 0.00 70 1012.7
20260505193300 54 306 4.3 8.7 0.00 0.00 0.00 70 1012.6
20260505193046 54 304 4.3 8.7 0.00 0.00 0.00 70 1012.6
20260505192759 55 298 5.2 8.7 0.00 0.00 0.00 70 1012.6
20260505192516 55 289 5.2 9.6 0.00 0.00 0.00 70 1012.6
20260505191723 55 310 5.2 9.6 0.00 0.00 0.00 70 1012.6
20260505191608 54 314 4.3 8.7 0.00 0.00 0.00 70 1012.5
20260505191157 55 305 5.2 9.6 0.00 0.00 0.00 70 1012.6
20260505190850 55 294 4.3 9.6 0.00 0.00 0.00 70 1012.6
20260505190344 55 289 4.3 7.0 0.00 0.00 0.00 69 1012.6
20260505190036 55 316 3.5 7.0 0.00 0.00 0.00 69 1012.5
20260505185617 55 294 5.2 8.7 0.00 0.00 0.00 68 1012.5
20260505185114 56 294 5.2 8.7 0.00 0.00 0.00 68 1012.5
20260505184613 56 289 5.2 10.4 0.00 0.00 0.00 67 1012.5
20260505184546 55 305 6.1 8.7 0.00 0.00 0.00 67 1012.5
20260505184047 56 306 5.2 8.7 0.00 0.00 0.00 67 1012.5
20260505183518 56 303 5.2 10.4 0.00 0.00 0.00 66 1012.5
20260505183131 56 326 6.1 10.4 0.00 0.00 0.00 65 1012.4
20260505183019 56 297 5.2 8.7 0.00 0.00 0.00 65 1012.4
20260505182508 56 313 6.1 10.4 0.00 0.00 0.00 65 1012.4
20260505182011 56 297 5.2 10.4 0.00 0.00 0.00 65 1012.4
20260505181503 56 301 5.2 10.4 0.00 0.00 0.00 65 1012.4
20260505181442 57 329 6.1 10.4 0.00 0.00 0.00 65 1012.4
20260505180941 57 289 7.0 10.4 0.00 0.00 0.00 65 1012.4
20260505180415 57 314 6.1 13.0 0.00 0.00 0.00 65 1012.4
20260505180045 57 334 5.2 10.4 0.00 0.00 0.00 65 1012.4
20260505175854 57 321 7.0 13.0 0.00 0.00 0.00 65 1012.4
20260505175338 58 346 7.0 13.0 0.00 0.00 0.00 65 1012.4
20260505175104 58 307 7.0 13.0 0.00 0.00 0.00 64 1012.4
20260505174551 57 305 7.8 13.0 0.00 0.00 0.00 64 1012.3
20260505174322 58 287 6.1 10.4 0.00 0.00 0.00 64 1012.3
20260505173821 58 294 6.1 10.4 0.00 0.00 0.00 64 1012.3
20260505173252 59 311 7.8 12.2 0.00 0.00 0.00 62 1012.4
20260505173040 58 299 7.0 12.2 0.00 0.00 0.00 63 1012.3
20260505172731 59 319 7.0 12.2 0.00 0.00 0.00 62 1012.4
20260505172450 59 311 5.2 10.4 0.00 0.00 0.00 64 1012.4
20260505171729 60 308 5.2 10.4 0.00 0.00 0.00 63 1012.5
20260505171525 59 298 4.3 10.4 0.00 0.00 0.00 64 1012.3
20260505171229 60 297 5.2 10.4 0.00 0.00 0.00 63 1012.4
20260505170727 60 294 5.2 7.8 0.00 0.00 0.00 63 1012.5
20260505170243 60 328 5.2 8.7 0.00 0.00 0.00 62 1012.4
20260505170052 59 289 4.3 7.8 0.00 0.00 0.00 61 1012.3
20260505165702 60 298 5.2 8.7 0.00 0.00 0.00 61 1012.4
20260505165201 60 303 4.3 8.7 0.00 0.00 0.00 62 1012.5
20260505164634 60 293 4.3 11.3 0.00 0.00 0.00 63 1012.4
20260505164605 59 293 4.3 8.7 0.00 0.00 0.00 62 1012.4
20260505164111 60 285 6.1 11.3 0.00 0.00 0.00 62 1012.5
20260505163550 60 305 6.1 12.2 0.00 0.00 0.00 60 1012.5
20260505163032 60 279 6.1 12.2 0.00 0.00 0.00 62 1012.5
20260505163021 59 282 4.3 11.3 0.00 0.00 0.00 63 1012.4
20260505162516 60 297 7.0 12.2 0.00 0.00 0.00 62 1012.4
20260505161948 60 294 7.0 12.2 0.00 0.00 0.00 62 1012.4
20260505161511 60 293 6.1 10.4 0.00 0.00 0.00 61 1012.4
20260505161428 60 313 6.1 10.4 0.00 0.00 0.00 61 1012.5
20260505160905 60 310 5.2 10.4 0.00 0.00 0.00 61 1012.5
20260505160400 60 333 6.1 10.4 0.00 0.00 0.00 60 1012.5
20260505153006 61 297 6.1 13.0 0.00 0.00 0.00 58 1012.4
20260505152736 62 17 6.1 13.0 0.00 0.00 0.00 60 1012.5
20260505152235 62 325 6.1 12.2 0.00 0.00 0.00 61 1012.5
20260505152000 62 309 6.1 12.2 0.00 0.00 0.00 60 1012.4
20260505151603 61 303 6.1 12.2 0.00 0.00 0.00 60 1012.4
20260505151204 62 289 7.0 11.3 0.00 0.00 0.00 60 1012.5
20260505150631 62 313 7.0 11.3 0.00 0.00 0.00 59 1012.5
20260505150125 62 292 6.1 11.3 0.00 0.00 0.00 59 1012.6
20260505140409 62 304 7.0 11.3 0.00 0.00 0.00 60 1012.9
20260505130148 63 334 7.0 12.2 0.00 0.00 0.00 58 1013.1
20260505124613 64 316 6.1 11.3 0.00 0.00 0.00 58 1013.1
20260505124558 63 297 6.1 10.4 0.00 0.00 0.00 58 1013.0
20260505124046 65 306 6.1 11.3 0.00 0.00 0.00 55 1013.1
20260505123517 65 14 7.0 11.3 0.00 0.00 0.00 57 1013.0
20260505123056 65 297 7.0 12.2 0.00 0.00 0.00 58 1013.0
20260505123016 65 292 7.0 12.2 0.00 0.00 0.00 58 1013.1
20260505122447 65 327 6.1 12.2 0.00 0.00 0.00 58 1013.2
20260505121946 64 337 5.2 14.8 0.00 0.00 0.00 61 1013.1
20260505121547 63 314 2.6 10.4 0.00 0.00 0.00 61 1013.0
20260505121426 63 26 7.0 14.8 0.00 0.00 0.00 60 1013.2
20260505120927 63 280 7.8 14.8 0.00 0.00 0.00 61 1013.2
20260505120419 63 295 7.0 14.8 0.00 0.00 0.00 61 1013.1
20260505120128 63 302 6.1 13.9 0.00 0.00 0.00 60 1013.0
20260505115918 64 299 6.1 13.9 0.00 0.00 0.00 61 1013.1
20260505115349 63 284 6.1 14.8 0.00 0.00 0.00 62 1013.1
20260505114848 63 3 8.7 14.8 0.00 0.00 0.00 62 1013.2
20260505114502 62 333 7.8 14.8 0.00 0.00 0.00 62 1013.0
20260505114341 62 326 9.6 14.8 0.00 0.00 0.00 62 1013.0
20260505113840 63 296 8.7 14.8 0.00 0.00 0.00 60 1013.2
20260505113311 63 313 7.8 13.0 0.00 0.00 0.00 61 1013.2
20260505113049 63 298 7.8 13.0 0.00 0.00 0.00 62 1013.0
20260505112748 63 297 8.7 13.0 0.00 0.00 0.00 62 1013.2
20260505112244 63 301 7.0 13.0 0.00 0.00 0.00 64 1013.2
20260505111739 63 315 6.1 13.0 0.00 0.00 0.00 62 1013.3
20260505111502 62 330 5.2 13.0 0.00 0.00 0.00 63 1013.2
20260505111459 62 306 5.2 10.4 0.00 0.00 0.00 65 1013.3
20260505110735 62 346 5.2 13.0 0.00 0.00 0.00 64 1013.3
20260505110217 61 305 6.1 13.0 0.00 0.00 0.00 64 1013.3
20260505102041 61 10 4.3 9.6 0.00 0.00 0.00 70 1013.6
20260505101538 60 308 4.3 9.6 0.00 0.00 0.00 74 1013.6
20260505101526 60 294 4.3 9.6 0.00 0.00 0.00 74 1013.5
20260505101020 59 343 5.2 9.6 0.00 0.00 0.00 75 1013.6
20260505100454 59 292 4.3 8.7 0.00 0.00 0.00 74 1013.7
20260505100020 58 10 4.3 8.7 0.00 0.00 0.00 77 1013.7
20260505095931 58 9 3.5 8.7 0.00 0.00 0.00 77 1013.8
20260505095431 57 346 4.3 7.8 0.00 0.00 0.00 76 1014.0
20260505094929 57 346 4.3 9.6 0.00 0.00 0.00 75 1014.0
20260505094515 56 15 4.3 9.6 0.00 0.00 0.00 76 1013.7
20260505094426 57 17 3.5 7.8 0.00 0.00 0.00 76 1013.8
20260505094048 56 341 3.5 7.0 0.00 0.00 0.00 78 1014.0
20260505094037 56 26 3.5 7.0 0.00 0.00 0.00 78 1014.0
20260505093030 55 42 4.3 7.0 0.00 0.00 0.00 77 1013.8
20260505092835 56 23 3.5 7.0 0.00 0.00 0.00 77 1014.0
20260505092314 56 4 4.3 10.4 0.00 0.00 0.00 78 1014.0
20260505091813 55 346 5.2 10.4 0.00 0.00 0.00 79 1014.0
20260505091529 55 342 4.3 10.4 0.00 0.00 0.00 79 1013.8
20260505091248 55 5 4.3 10.4 0.00 0.00 0.00 79 1013.8
20260505091229 55 337 3.5 8.7 0.00 0.00 0.00 80 1013.8
20260505090239 55 10 3.5 8.7 0.00 0.00 0.00 80 1013.8
20260505090039 54 10 1.7 8.7 0.00 0.00 0.00 80 1013.7
20260505085739 55 292 4.3 9.6 0.00 0.00 0.00 80 1013.8
20260505085238 55 305 5.2 9.6 0.00 0.00 0.00 79 1014.0
20260505084737 55 327 5.2 9.6 0.00 0.00 0.00 79 1013.8
20260505084511 54 13 4.3 9.6 0.00 0.00 0.00 79 1013.7
20260505084236 55 326 4.3 9.6 0.00 0.00 0.00 79 1013.7
20260505083730 55 5 4.3 9.6 0.00 0.00 0.00 79 1013.8
20260505083435 56 296 5.2 9.6 0.00 0.00 0.00 79 1013.8
20260505083048 55 316 6.1 9.6 0.00 0.00 0.00 78 1013.7
20260505082646 56 338 4.3 7.8 0.00 0.00 0.00 79 1013.8
20260505082121 56 26 5.2 13.9 0.00 0.00 0.00 79 1013.8
20260505081622 56 337 6.1 13.9 0.00 0.00 0.00 78 1013.8
20260505081554 56 338 4.3 13.9 0.00 0.00 0.00 78 1013.7
20260505081107 56 325 6.1 13.9 0.00 0.00 0.00 78 1013.8
20260505080605 56 308 5.2 13.9 0.00 0.00 0.00 79 1013.8
20260505080059 56 10 5.2 9.6 0.00 0.00 0.00 79 1013.8
20260505080038 56 3 4.3 9.6 0.00 0.00 0.00 79 1013.7
20260505075802 56 10 5.2 9.6 0.00 0.00 0.00 79 1013.8
20260505075016 56 315 4.3 8.7 0.00 0.00 0.00 81 1013.8
20260505074526 55 29 3.5 8.7 0.00 0.00 0.00 81 1013.7
20260505074453 56 300 5.2 13.9 0.00 0.00 0.00 81 1013.8
20260505073955 56 293 6.1 13.9 0.00 0.00 0.00 82 1013.8
20260505073438 55 13 6.1 13.9 0.00 0.00 0.00 82 1013.8
20260505073110 55 337 6.1 13.9 0.00 0.00 0.00 83 1013.7
20260505072939 55 302 6.1 13.9 0.00 0.00 0.00 83 1013.8
20260505072704 55 336 5.2 10.4 0.00 0.00 0.00 84 1013.7
20260505071937 54 301 4.3 8.7 0.00 0.00 0.00 85 1013.7
20260505071515 54 25 3.5 8.7 0.00 0.00 0.00 86 1013.8
20260505071437 54 346 4.3 8.7 0.00 0.00 0.00 86 1013.8
20260505070934 54 316 4.3 8.7 0.00 0.00 0.00 87 1013.8
20260505070441 53 294 4.3 8.7 0.00 0.00 0.00 87 1014.0
20260505070058 52 351 4.3 7.8 0.00 0.00 0.00 88 1013.9
20260505065928 53 255 4.3 7.8 0.00 0.00 0.00 88 1014.0
20260505065425 52 313 3.5 7.8 0.00 0.00 0.00 88 1014.0
20260505064921 52 338 3.5 7.8 0.00 0.00 0.00 88 1014.0
20260505064626 52 350 3.5 7.8 0.00 0.00 0.00 89 1014.0
20260505064538 52 360 3.5 6.1 0.00 0.00 0.00 89 1013.8
20260505063858 52 350 3.5 7.8 0.00 0.00 0.00 89 1013.8
20260505063355 52 289 3.5 7.8 0.00 0.00 0.00 90 1014.0
20260505063022 51 318 3.5 7.8 0.00 0.00 0.00 90 1013.7
20260505062831 51 302 2.6 6.1 0.00 0.00 0.00 90 1013.8
20260505062312 51 300 2.6 6.1 0.00 0.00 0.00 90 1013.8
20260505061812 51 300 3.5 6.1 0.00 0.00 0.00 90 1013.7
20260505061609 51 299 2.6 6.1 0.00 0.00 0.00 90 1013.7
20260505061314 51 299 4.3 8.7 0.00 0.00 0.00 90 1013.8
20260505060746 51 316 4.3 8.7 0.00 0.00 0.00 90 1013.7
20260505060509 51 316 6.1 8.7 0.00 0.00 0.00 90 1013.7
20260505060006 50 323 5.2 8.7 0.00 0.00 0.00 90 1013.6
20260505055719 51 308 6.1 8.7 0.00 0.00 0.00 90 1013.6
20260505055216 51 319 5.2 7.8 0.00 0.00 0.00 91 1013.7
20260505054713 51 301 5.2 7.0 0.00 0.00 0.00 90 1013.7
20260505054611 50 290 4.3 7.0 0.00 0.00 0.00 91 1013.7
20260505054210 51 286 5.2 7.0 0.00 0.00 0.00 91 1013.8
20260505053709 51 306 5.2 7.0 0.00 0.00 0.00 91 1013.7
20260505053143 51 305 5.2 8.7 0.00 0.00 0.00 91 1013.7
20260505053009 50 303 5.2 7.0 0.00 0.00 0.00 91 1013.6
20260505052622 51 306 5.2 8.7 0.00 0.00 0.00 91 1013.7
20260505052123 51 292 6.1 8.7 0.00 0.00 0.00 91 1013.7
20260505051619 51 302 6.1 8.7 0.00 0.00 0.00 91 1013.6
20260505051505 50 304 6.1 8.7 0.00 0.00 0.00 91 1013.5
20260505051110 51 307 5.2 9.6 0.00 0.00 0.00 91 1013.5
20260505050608 51 301 6.1 9.6 0.00 0.00 0.00 91 1013.5
20260505050110 50 306 6.1 9.6 0.00 0.00 0.00 91 1013.4
20260505050104 51 303 6.1 9.6 0.00 0.00 0.00 91 1013.5
20260505041554 50 305 0.0 0.0 0.00 0.00 0.00 92 1013.4
20260505041502 50 305 0.0 6.1 0.00 0.00 0.00 92 1013.5
20260505040946 50 304 1.7 6.1 0.00 0.00 0.00 92 1013.5
20260505040712 50 303 3.5 6.1 0.00 0.00 0.00 92 1013.5
20260505040030 50 304 3.5 6.1 0.00 0.00 0.00 91 1013.5
20260505035949 50 304 3.5 5.2 0.00 0.00 0.00 91 1013.6
20260505035428 50 303 2.6 4.3 0.00 0.00 0.00 91 1013.5
20260505034928 50 303 2.6 6.1 0.00 0.00 0.00 91 1013.5
20260505034544 50 303 1.7 4.3 0.00 0.00 0.00 91 1013.5
20260505034426 50 303 3.5 6.1 0.00 0.00 0.00 91 1013.5
20260505033926 50 303 4.3 6.1 0.00 0.00 0.00 91 1013.5
20260505033424 50 303 5.2 6.1 0.00 0.00 0.00 91 1013.5
20260505033008 50 303 4.3 6.1 0.00 0.00 0.00 91 1013.4
20260505032939 50 302 5.2 7.8 0.00 0.00 0.00 91 1013.5
20260505032401 50 301 5.2 7.8 0.00 0.00 0.00 91 1013.5
20260505032053 51 307 5.2 7.8 0.00 0.00 0.00 91 1013.5
20260505031604 50 306 4.3 7.8 0.00 0.00 0.00 91 1013.5
20260505031546 51 305 6.1 7.8 0.00 0.00 0.00 91 1013.5
20260505030824 51 302 6.1 7.8 0.00 0.00 0.00 91 1013.4
20260505030256 51 297 5.2 7.8 0.00 0.00 0.00 90 1013.5
20260505030056 50 304 5.2 7.8 0.00 0.00 0.00 90 1013.4
20260505025756 51 303 5.2 7.8 0.00 0.00 0.00 90 1013.5
20260505025226 51 313 5.2 7.0 0.00 0.00 0.00 90 1013.5
20260505024715 51 306 5.2 7.0 0.00 0.00 0.00 90 1013.5
20260505024538 51 298 5.2 7.0 0.00 0.00 0.00 90 1013.4
20260505024216 51 297 5.2 7.8 0.00 0.00 0.00 90 1013.5
20260505023718 51 294 5.2 7.8 0.00 0.00 0.00 90 1013.5
20260505023150 51 306 5.2 7.8 0.00 0.00 0.00 89 1013.5
20260505023132 51 308 5.2 7.8 0.00 0.00 0.00 90 1013.6
20260505023121 51 289 4.3 7.8 0.00 0.00 0.00 89 1013.4
20260505022145 52 305 4.3 7.0 0.00 0.00 0.00 89 1013.6
20260505021619 52 303 4.3 7.0 0.00 0.00 0.00 89 1013.6
20260505021549 51 303 3.5 7.0 0.00 0.00 0.00 89 1013.5
20260505021048 52 303 4.3 7.0 0.00 0.00 0.00 89 1013.6
20260505020547 52 301 4.3 7.0 0.00 0.00 0.00 90 1013.7
20260505020315 52 294 2.6 5.2 0.00 0.00 0.00 89 1013.7
20260505020027 52 294 3.5 5.2 0.00 0.00 0.00 89 1013.6
20260505015517 52 304 3.5 6.1 0.00 0.00 0.00 89 1013.8
20260505014951 52 304 3.5 6.1 0.00 0.00 0.00 89 1013.7
20260505014504 52 304 2.6 6.1 0.00 0.00 0.00 89 1013.7
20260505014423 53 304 3.5 6.1 0.00 0.00 0.00 89 1013.8
20260505013855 53 303 3.5 6.1 0.00 0.00 0.00 89 1013.8
20260505013353 53 305 3.5 4.3 0.00 0.00 0.00 89 1014.0
20260505013113 52 310 2.6 4.3 0.00 0.00 0.00 89 1013.9
20260505012828 53 310 2.6 4.3 0.00 0.00 0.00 89 1014.0
20260505012328 53 310 2.6 5.2 0.00 0.00 0.00 89 1014.0
20260505011802 53 310 1.7 5.2 0.00 0.00 0.00 89 1014.1
20260505011604 53 310 1.7 5.2 0.00 0.00 0.00 89 1013.9
20260505011305 53 310 2.6 6.1 0.00 0.00 0.00 89 1014.1
20260505011234 53 310 2.6 6.1 0.00 0.00 0.00 89 1014.1
20260505010520 53 308 3.5 7.8 0.00 0.00 0.00 89 1014.1
20260505010010 53 308 2.6 6.1 0.00 0.00 0.00 89 1014.0
20260505005746 53 307 3.5 7.8 0.00 0.00 0.00 89 1014.1
20260505005247 53 259 4.3 7.8 0.00 0.00 0.00 89 1014.2
20260505004721 53 308 4.3 7.8 0.00 0.00 0.00 89 1014.2
20260505004554 53 308 5.2 7.8 0.00 0.00 0.00 89 1014.1
20260505004207 53 310 3.5 7.8 0.00 0.00 0.00 89 1014.3
20260505003700 53 310 4.3 7.8 0.00 0.00 0.00 89 1014.3
20260505003201 53 304 5.2 9.6 0.00 0.00 0.00 90 1014.2
20260505003039 53 307 3.5 9.6 0.00 0.00 0.00 90 1014.1
20260505002927 53 293 5.2 9.6 0.00 0.00 0.00 90 1014.1
20260505002201 53 304 5.2 9.6 0.00 0.00 0.00 90 1014.2
20260505001637 53 303 5.2 9.6 0.00 0.00 0.00 90 1014.3
20260505001517 53 297 5.2 9.6 0.00 0.00 0.00 90 1014.2
20260505001116 53 301 5.2 9.6 0.00 0.00 0.00 90 1014.4
20260505000612 53 306 6.1 9.6 0.00 0.00 0.00 91 1014.3
20260505000111 53 304 6.1 7.8 0.00 0.00 0.00 91 1014.3
20260505000034 53 309 6.1 7.8 0.00 0.00 0.00 91 1014.2
20260504235831 53 301 4.3 7.8 0.00 0.00 0.00 91 1014.4
20260504235109 53 285 3.5 6.1 0.00 0.00 0.00 91 1014.5
20260504234608 53 299 3.5 5.2 0.00 0.00 0.00 91 1014.5
20260504234551 53 299 2.6 6.1 0.00 0.00 0.00 91 1014.4
20260504234106 53 299 3.5 6.1 0.00 0.00 0.00 91 1014.5
20260504233556 53 292 2.6 5.2 0.00 0.00 0.00 91 1014.6
20260504233052 53 291 0.9 3.5 0.00 0.00 0.00 91 1014.5
20260504233037 52 291 1.7 3.5 0.00 0.00 0.00 91 1014.3
20260504232539 53 291 0.9 3.5 0.00 0.00 0.00 91 1014.5
20260504232011 53 291 0.0 3.5 0.00 0.00 0.00 91 1014.5
20260504231541 52 291 0.0 3.5 0.00 0.00 0.00 91 1014.4
20260504231509 53 291 0.9 6.1 0.00 0.00 0.00 91 1014.5
20260504230942 53 291 2.6 6.1 0.00 0.00 0.00 91 1014.6
20260504230416 53 290 2.6 6.1 0.00 0.00 0.00 91 1014.5
20260504230020 52 287 2.6 6.1 0.00 0.00 0.00 90 1014.2
20260504225906 53 287 1.7 6.1 0.00 0.00 0.00 90 1014.4
20260504225406 53 311 0.0 7.8 0.00 0.00 0.00 90 1014.4
20260504224840 53 311 1.7 7.8 0.00 0.00 0.00 90 1014.3
20260504224550 53 310 0.0 6.1 0.00 0.00 0.00 91 1014.2
20260504224311 53 310 3.5 7.8 0.00 0.00 0.00 91 1014.3
20260504223806 53 307 4.3 7.8 0.00 0.00 0.00 91 1014.3
20260504223243 53 309 4.3 7.8 0.00 0.00 0.00 91 1014.3
20260504223106 53 306 3.5 7.8 0.00 0.00 0.00 91 1014.2
20260504222712 53 285 5.2 7.8 0.00 0.00 0.00 91 1014.4
20260504222211 53 306 5.2 7.8 0.00 0.00 0.00 91 1014.4
20260504221642 53 306 4.3 7.8 0.00 0.00 0.00 90 1014.4
20260504221600 52 305 5.2 7.8 0.00 0.00 0.00 90 1014.3
20260504221141 53 303 2.6 6.1 0.00 0.00 0.00 90 1014.4
20260504220620 53 304 0.9 5.2 0.00 0.00 0.00 90 1014.4
20260504220059 52 303 0.9 4.3 0.00 0.00 0.00 90 1014.5
20260504220008 52 303 0.9 4.3 0.00 0.00 0.00 90 1014.4
20260504215600 52 302 0.0 0.9 0.00 0.00 0.00 89 1014.6
20260504215055 53 302 0.0 0.9 0.00 0.00 0.00 89 1014.7